www.pogodaiklimat.ru

Погода и климат >> Архив погоды >> Чехия >> Кучарловице


ПОГОДА в Кучарловице

  • Прогноз погоды в Кучарловице
  • Монитор погоды в Кучарловице

АРХИВ ПОГОДЫ в Кучарловице

Время (UTC), дата Ветер
(напр.,м/с)
 
Видим.   Явления Облачность Т
(С)
Тd
(С)
f
(%)
Тe
(С)
Тes
(С)
Комфортность P
(гПа)
Po
(гПа)
Тmin
(С)
Tmax
(С)
R
(мм)
R24
(мм)
S
(см)
01 17.08 С 2 30 км н/о +12.1 +11.1 94 +11 +11 1017.9 977.8
02 17.08 С 3 27 км н/о +11.9 +10.8 93 +10 +10 1017.4 977.3
03 17.08 С 3 30 км н/о +11.5 +10.2 92 +10 +10 1017.7 977.5
04 17.08 С 2 22 км н/о +10.9 +10.2 95 +9 +9 1017.8 977.5
05 17.08 С 2 25 км н/о +11.1 +10.2 94 +10 +10 1017.8 977.5
06 17.08 С 2 30 км 4/0
[Ci]
+13.2 +11.4 89 +12 +15 1018.0 978.0 +10.5
07 17.08 ЮВ 2 30 км 8/0
[Ci]
+16.4 +13.1 81 +17 +21 1017.2 977.7
08 17.08 35 км 9/0
[Cs]
+17.7 +12.8 73 1016.9 977.6
09 17.08 нст 1 40 км 9/0
[Ac und Cs]
+18.3 +13.0 71 +20 +29 1016.9 977.7
10 17.08 ЮВ 3 40 км 9/0
[Ac und Cs]
+20.3 +13.3 64 +23 +28 комфорт 1016.2 977.3
11 17.08 Ю 3 45 км 9/0
[Ac As Ci sp]
+20.9 +13.4 62 +24 +29 комфорт 1015.8 977.0
12 17.08 Ю 4 45 км 8/1 1080 м
[Cu hum Ac As Ci fib]
+22.7 +13.7 57 +26 +31 жарко 1015.2 976.6
13 17.08 Ю 3 50 км 9/1 1200 м
[Cu hum Ac trans Ci fib]
+22.1 +12.1 53 +24 +29 комфорт 1014.9 976.2
14 17.08 ЮВ 3 50 км 9/1 1300 м
[Cu hum Ac trans Ci fib]
+22.7 +12.9 54 +26 +29 жарко 1014.4 975.8
15 17.08 нст 2 50 км 9/0
[Ac trans Ci sp]
+23.2 +12.2 50 +26 +28 жарко 1014.1 975.6
16 17.08 Ю 2 35 км н/о +22.9 +12.4 52 +26 +26 жарко 1013.9 975.4
17 17.08 ЮВ 2 35 км н/о +21.4 +14.1 63 +24 +24 комфорт 1013.9 975.2
18 17.08 В 2 50 км 9/0
[Ac As Ci fib]
+20.0 +13.5 66 +23 +23 комфорт 1013.9 975.0 +24.5
19 17.08 ЮВ 2 45 км 9/0
[Ac As Ci sp]
+20.3 +12.8 62 +23 +23 комфорт 1013.8 975.0
20 17.08 ЮВ 2 45 км 9/0
[Ac As Ci sp]
+20.1 +12.6 62 +23 +23 комфорт 1013.6 974.7
21 17.08 нст 1 35 км {дымка} н/о +19.0 +13.8 72 +21 +21 комфорт 1013.8 974.8
22 17.08 Ю 1 35 км н/о +19.1 +13.8 71 +21 +21 комфорт 1013.6 974.6
23 17.08 С 2 35 км н/о +18.7 +13.6 72 +20 +20 1013.3 974.3
00 18.08 С 2 35 км {дымка} н/о +18.2 +13.7 75 +19 +19 1013.5 974.4
01 18.08 штиль 0 35 км н/о +18.1 +13.9 76 +18 +18 1013.6 974.5
02 18.08 Ю 3 9000 м слаб. дождь н/о +17.7 +14.6 82 +18 +18 1013.6 974.4
03 18.08 Ю 2 35 км в посл. час дождь {ливн. осадки} н/о +17.7 +14.4 81 +18 +18 1012.8 973.7
04 18.08 Ю 2 35 км н/о +18.4 +13.8 75 +19 +19 1012.6 973.6
05 18.08 З 2 35 км н/о +19.7 +13.7 68 +22 +22 комфорт 1012.7 973.8
06 18.08 ЮЗ 1 45 км 9/0
[Ac As Ci sp]
+20.8 +14.0 65 +25 +26 комфорт 1012.7 974.0 +16.9 0.3
07 18.08 45 км 9/0
[Ac trans Ci sp]
+22.7 +12.9 54 1012.5 974.0
08 18.08 Ю 2 45 км 9/0
[Ac trans Ci sp]
+23.4 +15.2 60 +28 +32 душно 1012.5 974.1
09 18.08 ЮВ 3 50 км 4/0
[Ac trans Ci sp]
+24.2 +14.9 56 +27 +35 жарко 1012.2 973.9
10 18.08 Ю 4 45 км 1/0
[Ac trans Ci fib]
+27.2 +15.6 49 +30 +39 душно 1011.7 973.8
11 18.08 Ю 5 45 км 1/1 1500 м
[Cu hum Ac trans Ci fib]
+27.9 +14.2 43 +30 +37 жарко 1011.3 973.5
12 18.08 Ю 5 45 км 1/1 1500 м
[Cu hum Ac trans Ci fib]
+29.2 +13.8 39 +31 +37 жарко 1010.7 973.1
13 18.08 Ю 6 50 км 1/1 1500 м
[Cu hum]
+31.0 +14.6 37 +33 +37 душно 1009.9 972.6
14 18.08 Ю 5 50 км 1/1 1500 м
[Cu hum]
+32.3 +14.4 34 +34 +38 душно 1009.6 972.4
15 18.08 ЮЗ 4 50 км 1/1 1500 м
[Cu hum]
+33.1 +14.7 33 +35 +38 душно 1009.4 972.3
16 18.08 Ю 5 35 км н/о +32.1 +14.0 33 +33 +33 жарко 1009.3 972.1
17 18.08 З 3 35 км н/о +31.8 +12.9 32 +33 +33 жарко 1009.5 972.2
18 18.08 Ю 3 50 км ясно +28.3 +15.2 45 +31 +31 душно 1009.9 972.2 +33.4
19 18.08 ЮВ 3 50 км ясно +25.6 +15.9 55 +29 +29 душно 1010.2 972.2
20 18.08 ЮВ 3 50 км 1/0
[Ci fib]
+24.2 +15.7 59 +27 +27 жарко 1010.6 972.4
21 18.08 Ю 3 35 км н/о +23.2 +15.4 62 +27 +27 душно 1010.7 972.4
22 18.08 Ю 5 35 км н/о +22.9 +15.3 62 +27 +27 душно 1010.6 972.2
23 18.08 ЮВ 4 35 км н/о +20.1 +15.3 74 +23 +23 комфорт 1010.8 972.1
00 19.08 нст 2 35 км н/о +20.7 +15.9 74 +25 +25 комфорт 1010.8 972.2 0.0
01 19.08 35 км н/о +18.2 +15.9 86 1011.4 972.4
02 19.08 С 3 35 км н/о +17.9 +16.3 90 +18 +18 1011.9 972.9
03 19.08 С 3 35 км {дымка} н/о +17.6 +16.0 90 +18 +18 1012.8 973.7
04 19.08 С 3 35 км н/о +17.5 +16.1 91 +17 +17 1013.3 974.2
05 19.08 СЗ 3 35 км н/о +18.8 +16.4 86 +20 +20 1014.6 975.6
06 19.08 СЗ 5 40 км 1/0
[Ac trans]
+22.0 +15.6 67 +26 +27 душно 1014.8 976.2 +17.2
07 19.08 СЗ 7
{11}
40 км 1/0
[Ac cast Ci fib]
+24.6 +15.2 56 +28 +29 душно 1014.8 976.5
08 19.08 СЗ 6
{11}
40 км 5/0
[Ac und Ci fib]
+26.1 +14.2 48 +28 +31 жарко 1015.1 977.0
09 19.08 СЗ 3
{11}
45 км 6/1 1500 м
[Cu hum Ac As Ci fib]
+27.2 +13.9 44 +29 +36 жарко 1015.2 977.2
10 19.08 50 км 4/0
[Ac As Ci fib]
+28.1 +14.0 42 1015.4 977.5
11 19.08 З 5 50 км 4/1 1500 м
[Cu hum Ac trans Ci fib]
+27.8 +14.4 44 +30 +36 жарко 1015.4 977.5
12 19.08 З 4
{11}
50 км 3/1 1500 м
[Cu hum Ac trans Ci fib]
+27.7 +13.6 42 +30 +37 жарко 1015.9 977.9
13 19.08 З 3 50 км 6/3 1500 м
[Cu hum Ac trans Cs]
+29.1 +12.1 35 +30 +35 жарко 1015.6 977.8
14 19.08 З 4 50 км 8/1 1500 м
[Cu hum Ac trans Cs]
+28.5 +12.4 37 +30 +33 жарко 1015.9 978.0
15 19.08 З 3 50 км 8/1 1500 м
[Cu hum Ac trans Ci sp]
+28.1 +13.2 40 +30 +32 жарко 1015.7 977.8
16 19.08 СЗ 5 35 км н/о +26.5 +14.2 47 +29 +29 жарко 1015.9 977.8
17 19.08 СЗ 3 35 км н/о +25.9 +14.4 49 +28 +28 жарко 1016.4 978.2
18 19.08 СЗ 4 50 км 9/0 2000 м
[Ac trans Ci sp]
+24.8 +13.7 50 +27 +27 жарко 1017.1 978.7 +30.1
19 19.08 С 3 50 км 9/0
[Ac As]
+24.2 +13.4 51 +26 +26 жарко 1017.8 979.3
20 19.08 С 2 40 км 9/0
[Ac As]
+23.3 +13.8 55 +27 +27 душно 1018.7 980.1
21 19.08 С 2 35 км {дымка} н/о +22.4 +14.2 60 +26 +26 жарко 1018.7 980.0
22 19.08 С 2 35 км н/о +21.8 +14.3 62 +25 +25 комфорт 1018.9 980.1
23 19.08 С 2 35 км н/о +20.8 +14.6 68 +24 +24 комфорт 1018.8 979.9
00 20.08 С 2 35 км {дымка} н/о +19.7 +15.0 74 +22 +22 комфорт 1019.2 980.1
01 20.08 С 2 35 км н/о +19.0 +15.1 78 +21 +21 комфорт 1019.4 980.2
02 20.08 С 2 35 км н/о +18.3 +15.0 81 +19 +19 1019.6 980.3
03 20.08 С 2 35 км {дымка} н/о +18.3 +15.0 81 +19 +19 1019.7 980.4
04 20.08 С 2 35 км н/о +18.3 +15.1 82 +19 +19 1019.8 980.5
05 20.08 С 2 35 км н/о +18.2 +15.2 83 +19 +19 1020.5 981.2
06 20.08 С 1 35 км 9/0
[Ac trans Cs]
+19.9 +15.5 76 +23 +25 комфорт 1020.3 981.2 +17.6
07 20.08 40 км 9/0
[Ac trans Cs]
+21.3 +16.1 72 1020.0 981.1
08 20.08 В 3 40 км 9/0
[Ac As]
+21.9 +16.6 72 +26 +29 душно 1019.9 981.1
09 20.08 нст 2 40 км 10/0 2000 м
[As op]
+22.5 +16.8 70 +27 +29 душно 1019.8 981.1
10 20.08 35 км 10/0
[As op]
+23.7 +16.7 65 1019.7 981.1
11 20.08 24 км 9/1 1000 м
[Cu hum As op]
+25.6 +17.3 60 1018.9 980.6
12 20.08 нст 2 50 км 10/1 1020 м
[Cu hum As op]
+25.0 +16.4 59 +28 +31 жарко 1018.8 980.4
13 20.08 40 км 10/1 1080 м
[Cu hum As op]
+25.9 +16.7 57 1018.1 979.9
14 20.08 40 км 10/0
[Ac As]
+26.2 +16.5 55 1018.0 979.8
15 20.08 ЮВ 3 40 км 10/0 2000 м
[Ac As]
+25.7 +17.4 60 +30 +31 душно 1017.6 979.4
16 20.08 В 2 35 км н/о +25.8 +18.0 62 +30 +30 душно 1016.9 978.7
17 20.08 нст 1 35 км {дымка} н/о +25.3 +18.3 65 +30 +30 душно 1016.8 978.6
18 20.08 нст 1 40 км 10/0
[Cs]
+24.5 +18.4 69 +29 +29 душно 1016.5 978.2 +27.4
19 20.08 40 км 10/0
[Cs]
+23.7 +18.4 72 1016.8 978.4
20 20.08 С 2 40 км 5/0
[Ci sp]
+22.4 +18.2 77 +28 +28 душно 1016.5 977.9
21 20.08 СЗ 5 35 км н/о +20.2 +17.2 83 +23 +23 комфорт 1017.1 978.2
22 20.08 С 6 35 км н/о +19.6 +16.3 81 +21 +21 комфорт 1017.8 978.8
23 20.08 С 6
{17}
35 км слаб. ливневой дождь н/о +17.9 +17.1 95 +17 +17 1019.1 979.8
00 21.08 СЗ 6
{17}
35 км {ливн. осадки, дождь} н/о +17.7 +16.7 94 +17 +17 1019.9 980.5 8
01 21.08 СЗ 6 35 км н/о +17.8 +15.6 87 +17 +17 1021.8 982.4
02 21.08 СЗ 8-13
{13}
35 км н/о +16.1 +14.2 88 +14 +14 1023.1 983.4
03 21.08 СЗ 7
{13}
35 км н/о +15.6 +13.3 86 +14 +14 1024.2 984.3
04 21.08 СЗ 6
{11}
35 км н/о +15.6 +12.7 83 +14 +14 1024.7 984.8
05 21.08 СЗ 7-12
{12}
35 км н/о +15.4 +12.3 82 +14 +14 1025.9 985.9
06 21.08 СЗ 7-12
{13}
50 км 10/10 600 м
[Sc]
+15.7 +12.5 81 +14 +14 1027.0 987.0 +15.4 8
07 21.08 СЗ 7
{11}
40 км 10/10 540 м
[Sc]
+16.3 +12.5 78 +15 +15 1027.1 987.2
08 21.08 СЗ 7
{11}
50 км 10/6 570 м
[Sc Ac As]
+16.5 +12.7 78 +15 +15 1027.4 987.5
09 21.08 СЗ 9
{13}
50 км 10/6 630 м
[Sc Ac As]
+16.9 +12.2 74 +15 +16 1027.3 987.5
10 21.08 СЗ 7
{14}
50 км 10/6 630 м
[Sc Ac As]
+16.7 +12.0 74 +15 +16 1027.9 988.0
11 21.08 С 5 40 км 10/9 660 м
[Sc]
+17.3 +12.4 73 +17 +17 1028.0 988.2
12 21.08 С 5
{14}
40 км 10/9 720 м
[Sc]
+17.6 +12.3 71 +17 +17 1027.5 987.8
13 21.08 С 5 50 км 10/4 720 м
[Sc Ac As]
+18.6 +12.4 67 +19 +20 1027.1 987.5
14 21.08 С 4 50 км 10/6 1140 м
[Sc Ac As]
+19.2 +11.7 62 +20 +21 1027.2 987.7
15 21.08 С 4 40 км слаб. дождь 10/0 2000 м
[Ac As]
+18.7 +12.2 66 +19 +20 1027.0 987.4
16 21.08 35 км в посл. час дождь {ливн. осадки} н/о +18.9 +12.6 67 1026.9 987.4
17 21.08 35 км н/о +18.4 +12.7 69 1027.2 987.6
18 21.08 С 2 40 км 4/0
[Ci sp]
+17.4 +12.5 73 +18 +18 1027.4 987.6 +20.0 0.0
19 21.08 С 1 40 км 1/0
[Ci sp]
+15.6 +12.0 79 +16 +16 1027.9 987.9
20 21.08 С 2 40 км ясно +14.7 +11.7 82 +14 +14 1028.1 987.9
21 21.08 С 2 35 км {дымка} н/о +13.5 +11.6 88 +13 +13 1028.5 988.2
22 21.08 С 2 35 км н/о +13.3 +11.3 88 +13 +13 1028.7 988.3
23 21.08 С 2 35 км н/о +12.8 +11.2 90 +12 +12 1028.4 988.0
00 22.08 С 3 35 км {дымка} н/о +12.4 +11.1 92 +11 +11 1028.0 987.5
01 22.08 С 2 35 км н/о +11.9 +10.7 92 +11 +11 1027.6 987.1
02 22.08 С 4 35 км н/о +12.5 +10.8 89 +11 +11 1027.3 986.9
03 22.08 С 4 35 км н/о +13.0 +10.8 86 +11 +11 1027.1 986.7
04 22.08 С 3 35 км н/о +13.1 +10.8 86 +12 +12 1026.6 986.3
05 22.08 С 3 35 км н/о +13.4 +11.2 87 +12 +12 1026.7 986.4
06 22.08 С 4 35 км 9/0
[Ci sp]
+14.0 +11.5 85 +13 +14 1026.5 986.3 +11.7
07 22.08 С 3 35 км 9/0
[Ci sp]
+16.1 +11.9 76 +16 +19 1026.3 986.4
08 22.08 СВ 3 35 км 9/0
[Ci sp]
+16.8 +11.9 73 +17 +22 1026.0 986.2
09 22.08 нст 2 35 км 9/0
[Ac As]
+18.4 +12.4 68 +19 +23 1025.6 986.0
10 22.08 В 3 35 км 9/0
[Ac As]
+19.8 +13.3 66 +22 +26 комфорт 1025.5 986.1
11 22.08 40 км 9/9 800 м
[Sc]
+19.7 +12.9 65 1025.6 986.2
12 22.08 СВ 3 40 км 9/4 900 м
[Cu Sc Ac As]
+20.3 +13.5 65 +23 +26 комфорт 1025.2 985.9
13 22.08 В 3 40 км 9/1 900 м
[Cu hum Ac trans]
+20.9 +13.8 64 +24 +28 комфорт 1024.9 985.7
14 22.08 СВ 3 40 км 8/1 900 м
[Cu hum Ac trans Ci fib]
+21.8 +14.7 64 +25 +29 комфорт 1024.4 985.4
15 22.08 нст 2 45 км 6/1 960 м
[Cu hum Ac trans Ci fib]
+21.4 +14.1 63 +24 +27 комфорт 1024.5 985.4
16 22.08 35 км н/о +21.6 +14.3 63 1024.1 985.0
17 22.08 35 км н/о +21.0 +14.1 65 1024.1 985.0
18 22.08 СВ 2 40 км 5/0 2000 м
[Ac und Ci sp]
+19.7 +13.9 69 +22 +22 комфорт 1024.6 985.3 +22.6
19 22.08 СВ 2 40 км 6/0
[Ac und Ci sp]
+19.2 +13.4 69 +21 +21 комфорт 1025.5 986.1
20 22.08 40 км 8/4 1500 м
[Sc Ci sp]
+18.6 +13.2 71 1026.0 986.5
21 22.08 С 2 35 км {дымка} н/о +17.7 +13.1 74 +18 +18 1026.0 986.3
22 22.08 С 2 35 км н/о +17.0 +13.0 77 +17 +17 1026.1 986.3
23 22.08 С 3 35 км н/о +16.0 +13.0 82 +16 +16 1026.4 986.5
00 23.08 С 4 30 км н/о +15.4 +12.8 84 +14 +14 1026.4 986.4
01 23.08 С 4 30 км н/о +15.2 +12.7 85 +14 +14 1026.2 986.2
02 23.08 С 3 30 км н/о +14.6 +12.5 87 +14 +14 1026.3 986.2
03 23.08 С 3 25 км н/о +14.0 +12.2 89 +13 +13 1026.5 986.3
04 23.08 С 3 21 км н/о +13.5 +12.1 91 +12 +12 1026.5 986.2
05 23.08 С 3 26 км н/о +14.0 +12.1 88 +13 +13 1026.9 986.7
06 23.08 С 2 25 км 1/0
[Ac trans Ci fib]
+15.4 +12.7 84 +15 +17 1027.0 987.0 +13.2
07 23.08 35 км 1/0
[Ac trans Ci fib]
+18.0 +13.1 73 1026.8 987.2
08 23.08 35 км 1/1 800 м
[Cu hum Ci fib]
+19.8 +13.5 67 1026.5 987.1
09 23.08 С 3 40 км 1/1 1000 м
[Cu hum Ci fib]
+21.9 +13.3 58 +25 +33 комфорт 1025.7 986.6
10 23.08 40 км ясно +22.8 +12.4 52 1025.4 986.4
11 23.08 С 3 40 км ясно +24.1 +12.7 49 +26 +37 жарко 1024.9 986.1
12 23.08 нст 1 40 км ясно +25.0 +12.9 47 +27 +42 жарко 1024.2 985.6
13 23.08 40 км ясно +25.5 +13.4 47 1023.7 985.1
14 23.08 40 км 1/0
[Ci]
+26.0 +13.5 46 1023.2 984.7
15 23.08 ЮВ 3 45 км 1/0
[Ci fib]
+25.5 +14.0 49 +28 +31 жарко 1022.9 984.4
16 23.08 В 2 35 км н/о +25.2 +14.0 50 +28 +28 жарко 1022.4 983.9
17 23.08 В 3 35 км н/о +23.8 +14.5 56 +26 +26 жарко 1022.5 983.8
18 23.08 В 2 35 км 1/0
[Ci fib]
+22.3 +14.7 62 +26 +26 жарко 1023.0 984.1 +26.6
19 23.08 В 2 35 км 1/0
[Ci fib]
+22.0 +14.6 63 +25 +25 комфорт 1023.6 984.6
20 23.08 СВ 3 35 км 1/0
[Ci fib]
+21.3 +15.0 67 +24 +24 комфорт 1023.8 984.7
21 23.08 СВ 3 27 км н/о +20.7 +15.5 72 +24 +24 комфорт 1023.4 984.3
22 23.08 СВ 3 25 км н/о +20.3 +15.4 73 +23 +23 комфорт 1023.3 984.1
23 23.08 23 км н/о +19.9 +15.6 76 1023.2 984.0
00 24.08 нст 2 21 км н/о +18.9 +15.5 81 +21 +21 комфорт 1023.0 983.7
01 24.08 21 км н/о +18.3 +15.3 83 1023.0 983.6
02 24.08 20 км н/о +18.0 +15.4 85 1023.1 983.6

 

Местоположение метеостанции Кучарловице (Чехия): широта 48.88 долгота 16.08 высота над уровнем моря 339 м.

В архиве по умолчанию представлена погода в Кучарловице за последнюю неделю. Архивные данные за месяц целиком и за предыдущие месяцы, начиная с января 2011 года, Вы можете получить, выбрав интересующий диапазон дат из раскрывающегося списка и нажав кнопку "Ввод!".


*Определитесь, кто Вы:
робот инопланетянин человек

Внимание! Время в таблицах - всемирное. Для получения местного времени необходимо прибавить поправку, которая равна 1 ч.

Смотрите также архив погоды в соседних городах и на ближайших метеорологических станциях:

Погода в Реце (Австрия) (16 км)
Погода на АЭС Дукованы (Чехия) (25 км)
Погода в Замке Namest nad Oslav (Чехия) (32 км)
Погода в Лейзер Берге (Австрия) (41 км)
Погода в Гарс-ам-Кампе (Австрия) (45 км)
Погода в Пойсдорфе (Австрия) (47 км)
Погода в Мистельбахе (Австрия) (51 км)
Погода в Лангенлойсе (Австрия) (53 км)
Погода в Брно (Чехия) (54 км)
Погода в Церкви Мыслова (Чехия) (56 км)

Пояснения к столбцам:

Ветер - указаны скорость ветра в м/с - средняя за 10 мин, порывы в срок и между сроками (в фигурных скобках) и направление, откуда дует ветер: С - северный, СВ - северо-восточный, В - восточный, ЮВ - юго-восточный, Ю - южный, ЮЗ - юго-западный, З - западный, СЗ - северо-западный.
Видимость - горизонтальная дальность видимости в метрах или километрах. При видимости от 1 до 10 км при отсутствии осадков обычно наблюдается дымка, при ухудшении видимости до 1 км и менее - туман. В сухую погоду видимость может ухудшаться дымом, пылью или мглою.
Явления - указаны атмосферные явления, наблюдавшиеся в срок или в последний час перед сроком; фигурными скобками обозначены явления, наблюдавшиеся между сроками (за 1-3 часа до срока); квадратными скобками обозначены град или гололедные отложения с указанием их диаметра в мм.
Облачность - указаны через наклонную черту общая и нижняя облачность в баллах и высота нижней границы облаков в метрах; квадратными скобками обозначены формы облаков: Ci - перистые, Cs - перисто-слоистые, Cc - перисто-кучевые, Ac - высококучевые, As - высокослоистые, Sc - слоисто-кучевые, Ns - слоисто-дождевые, Cu - кучевые, Cb - кучево-дождевые. Подробнее классификацию облаков см. в Атласе облаков (PDF).
T - Температура воздуха - температура, измеренная на высоте 2 м над землей.
Td - Температура точки росы - температура, при понижении до которой содержащийся в воздухе водяной пар достигнет насыщения.
f - Относительная влажность воздуха - влажноcть воздуха, измеренная на высоте 2 м над землей.
Te - Эффективная температура - температура, которую ощущает одетый по сезону человек в тени. Характеристика душности погоды. При расчете учитывается влияние влажности воздуха и скорости ветра на теплоощущения человека.
Tes - Эффективная температура на солнце - температура, которую ощущает человек, с поправкой на солнечный нагрев. Характеристика знойности погоды. Зависит от высоты солнца над горизонтом, облачности и скорости ветра. Ночью, в пасмурную погоду, а также при ветре 12 м/с и более поправка равна нулю.
P - Атмосферное давление - приведенное к уровню моря атмосферное давление.
Po - Атмосферное давление - измеренное на уровне метеостанции атмосферное давление.
Tmin - Минимальная температура - минимум температуры воздуха на высоте 2 м над землей.
Tmax - Максимальная температура - максимум температуры воздуха на высоте 2 м над землей.
R - Количество осадков - Количество выпавших осадков за период времени, мм. При наведении курсора мыши на число - период времени, за который выпало указанное количество осадков.
R24 - Количество осадков - Количество выпавших осадков за 24 часа, мм.
S - Снежный покров - Высота снежного покрова, см. При наведении курсора мыши на число - состояние снежного покрова и степень покрытия местности в баллах.